KG9NS Weather Reports


time (UTC)temp
C
wind
direction
speed
KPH
gust
KPH
rain 1hr
cm
rain 24hr
cm
rain mn
cm
humidity
%
barometer
mb
20260509024731 13 219 0.0 3.2 0.00 0.00 0.05 86 1010.9
20260509024232 13 40 0.0 1.6 0.00 0.00 0.05 86 1010.8
20260509023731 13 346 1.6 3.2 0.00 0.00 0.05 86 1010.9
20260509023234 13 0 3.2 6.4 0.00 0.00 0.05 87 1010.9
20260509022731 13 8 0.0 3.2 0.00 0.00 0.05 87 1011.0
20260509022233 13 351 1.6 3.2 0.03 0.00 0.05 87 1010.7
20260509021732 13 293 0.0 3.2 0.03 0.00 0.05 88 1010.6
20260509021234 13 0 0.0 0.0 0.03 0.00 0.05 88 1010.5
20260509020733 13 12 0.0 1.6 0.03 0.00 0.05 87 1010.4
20260509020232 13 0 0.0 0.0 0.03 0.00 0.05 87 1010.4
20260509015733 13 0 0.0 0.0 0.03 0.00 0.05 86 1010.5
20260509015235 13 0 0.0 0.0 0.03 0.00 0.05 86 1010.4
20260509014732 14 63 0.0 1.6 0.03 0.00 0.05 85 1010.4
20260509014231 14 0 0.0 0.0 0.03 0.00 0.05 85 1010.5
20260509013731 14 0 0.0 0.0 0.03 0.00 0.05 84 1010.4
20260509013233 14 217 3.2 3.2 0.03 0.00 0.05 84 1010.5
20260509012732 14 0 0.0 0.0 0.03 0.00 0.05 84 1010.4
20260509012231 14 5 4.8 6.4 0.03 0.00 0.05 83 1010.3
20260509011734 15 49 0.0 1.6 0.03 0.00 0.05 82 1010.4
20260509011233 15 179 3.2 4.8 0.03 0.00 0.05 81 1010.4
20260509010732 15 11 1.6 3.2 0.03 0.00 0.05 81 1010.3
20260509010233 14 229 1.6 3.2 0.03 0.00 0.05 84 1010.3
20260509005731 14 208 0.0 1.6 0.03 0.00 0.05 87 1010.3
20260509005231 14 0 0.0 0.0 0.03 0.00 0.05 86 1010.0
20260509004731 15 0 0.0 0.0 0.03 0.00 0.05 85 1009.8
20260509004232 15 0 0.0 0.0 0.03 0.00 0.05 84 1009.7
20260509003731 15 0 0.0 0.0 0.03 0.00 0.03 83 1009.7
20260509003231 15 24 0.0 3.2 0.03 0.00 0.03 82 1009.7
20260509002731 15 346 1.6 3.2 0.00 0.00 0.03 80 1009.7
20260509002232 15 0 0.0 0.0 0.00 0.00 0.03 79 1009.7
20260509001731 15 81 0.0 1.6 0.03 0.00 0.03 77 1009.8
20260509001232 15 0 0.0 0.0 0.03 0.00 0.03 78 1009.8
20260509000732 15 0 0.0 0.0 0.03 0.00 0.03 78 1009.8
20260509000234 15 0 0.0 0.0 0.03 0.00 0.03 78 1009.8
20260508235733 15 36 0.0 0.0 0.03 0.00 0.03 77 1009.8
20260508235233 15 0 0.0 0.0 0.03 0.00 0.03 78 1009.7
20260508234731 16 0 0.0 0.0 0.03 0.00 0.03 77 1009.7
20260508234232 16 27 0.0 1.6 0.00 0.00 0.03 75 1009.7
20260508233732 16 20 1.6 3.2 0.00 0.00 0.03 73 1009.6
20260508233232 16 0 0.0 0.0 0.00 0.00 0.00 73 1009.7
20260508232733 16 27 1.6 3.2 0.00 0.00 0.00 69 1009.8
20260508232233 17 0 0.0 0.0 0.00 0.00 0.00 68 1009.9
20260508231732 17 206 1.6 3.2 0.00 0.00 0.00 66 1009.9
20260508231232 17 0 0.0 0.0 0.00 0.00 0.00 63 1009.8
20260508230732 17 0 0.0 0.0 0.00 0.00 0.00 61 1009.7
20260508230232 17 0 0.0 0.0 0.00 0.00 0.00 59 1009.7
20260508225732 18 0 0.0 0.0 0.00 0.00 0.00 57 1009.7
20260508225234 18 322 0.0 1.6 0.00 0.00 0.00 55 1009.6
20260508224732 18 0 0.0 0.0 0.00 0.00 0.00 54 1009.5
20260508224231 18 191 0.0 1.6 0.00 0.00 0.00 51 1009.5
20260508223731 18 161 0.0 3.2 0.00 0.00 0.00 50 1009.5
20260508223234 18 218 0.0 1.6 0.00 0.00 0.00 50 1009.4
20260508222733 19 186 0.0 0.0 0.00 0.00 0.00 49 1009.4
20260508222236 19 217 4.8 4.8 0.00 0.00 0.00 48 1009.5
20260508221732 19 220 3.2 4.8 0.00 0.00 0.00 47 1009.5
20260508221233 19 225 3.2 6.4 0.00 0.00 0.00 48 1009.5
20260508220733 19 233 6.4 11.3 0.00 0.00 0.00 47 1009.5
20260508220233 19 223 4.8 6.4 0.00 0.00 0.00 47 1009.5
20260508215732 19 231 4.8 6.4 0.00 0.00 0.00 47 1009.4
20260508215233 19 235 6.4 8.0 0.00 0.00 0.00 47 1009.5
20260508214733 19 212 9.7 12.9 0.00 0.00 0.00 46 1009.4
20260508214234 19 193 8.0 11.3 0.00 0.00 0.00 46 1009.4
20260508213731 19 228 3.2 6.4 0.00 0.00 0.00 47 1009.4
20260508213231 19 185 3.2 6.4 0.00 0.00 0.00 47 1009.4
20260508212733 19 214 6.4 8.0 0.00 0.00 0.00 47 1009.5
20260508212231 19 224 6.4 8.0 0.00 0.00 0.00 47 1009.6
20260508211733 19 223 4.8 6.4 0.00 0.00 0.00 46 1009.6
20260508211232 19 235 9.7 14.5 0.00 0.00 0.00 46 1009.7
20260508210732 19 205 1.6 3.2 0.00 0.00 0.00 46 1009.6
20260508210233 19 211 4.8 6.4 0.00 0.00 0.00 46 1009.8
20260508205731 19 236 6.4 9.7 0.00 0.00 0.00 46 1009.8
20260508205232 19 203 6.4 11.3 0.00 0.00 0.00 46 1010.0
20260508204733 19 229 11.3 20.9 0.00 0.00 0.00 45 1010.1
20260508204233 19 200 4.8 6.4 0.00 0.00 0.00 46 1010.2
20260508203738 19 240 9.7 12.9 0.00 0.00 0.00 45 1010.3
20260508203235 19 231 12.9 20.9 0.00 0.00 0.00 45 1010.3
20260508202732 19 228 12.9 17.7 0.00 0.00 0.00 45 1010.4
20260508202233 19 222 9.7 11.3 0.00 0.00 0.00 45 1010.4
20260508201734 19 232 6.4 9.7 0.00 0.00 0.00 45 1010.5
20260508201231 19 220 11.3 17.7 0.00 0.00 0.00 45 1010.5
20260508200732 19 233 9.7 14.5 0.00 0.00 0.00 45 1010.6
20260508200233 19 231 8.0 17.7 0.00 0.00 0.00 45 1010.5
20260508195733 19 234 12.9 19.3 0.00 0.00 0.00 44 1010.5
20260508195233 19 218 11.3 17.7 0.00 0.00 0.00 44 1010.6
20260508194732 19 229 9.7 16.1 0.00 0.00 0.00 44 1010.7
20260508194231 19 216 6.4 8.0 0.00 0.00 0.00 45 1010.7
20260508193733 19 222 11.3 14.5 0.00 0.00 0.00 44 1010.8
20260508193231 19 227 8.0 12.9 0.00 0.00 0.00 44 1010.8
20260508192732 19 231 17.7 27.4 0.00 0.00 0.00 43 1010.7
20260508192233 20 228 9.7 12.9 0.00 0.00 0.00 44 1010.8
20260508191733 20 212 8.0 12.9 0.00 0.00 0.00 44 1010.9
20260508191231 20 235 14.5 19.3 0.00 0.00 0.00 43 1010.9
20260508190734 20 226 14.5 17.7 0.00 0.00 0.00 43 1010.9
20260508190231 20 222 14.5 20.9 0.00 0.00 0.00 44 1011.1
20260508185733 20 201 9.7 16.1 0.00 0.00 0.00 44 1011.0
20260508185232 20 215 17.7 24.1 0.00 0.00 0.00 44 1011.2
20260508184731 20 221 16.1 20.9 0.00 0.00 0.00 44 1011.5
20260508184234 20 230 16.1 20.9 0.00 0.00 0.00 45 1011.5
20260508183733 20 228 12.9 16.1 0.00 0.00 0.00 45 1011.6
20260508183232 20 208 9.7 16.1 0.00 0.00 0.00 45 1011.7
20260508182734 20 220 14.5 22.5 0.00 0.00 0.00 44 1011.8
20260508182233 20 191 11.3 16.1 0.00 0.00 0.00 46 1011.7
20260508181733 20 224 12.9 16.1 0.00 0.00 0.00 46 1011.8
20260508181231 20 221 9.7 20.9 0.00 0.00 0.00 47 1011.9
20260508180732 19 233 14.5 24.1 0.00 0.00 0.00 45 1012.0
20260508180234 19 213 6.4 9.7 0.00 0.00 0.00 47 1012.0
20260508175733 19 234 8.0 11.3 0.00 0.00 0.00 47 1012.3
20260508175233 19 211 9.7 14.5 0.00 0.00 0.00 48 1012.3
20260508174734 18 222 11.3 19.3 0.00 0.00 0.00 48 1012.3
20260508174232 18 212 11.3 17.7 0.00 0.00 0.00 47 1012.3
20260508173734 18 227 12.9 19.3 0.00 0.00 0.00 49 1012.3
20260508173233 18 226 8.0 11.3 0.00 0.00 0.00 49 1012.6
20260508172733 18 197 9.7 14.5 0.00 0.00 0.00 49 1012.7
20260508172232 18 238 14.5 20.9 0.00 0.00 0.00 49 1012.8
20260508171732 18 226 6.4 9.7 0.00 0.00 0.00 50 1012.9
20260508171232 18 225 12.9 17.7 0.00 0.00 0.00 50 1012.9
20260508170734 18 232 9.7 16.1 0.00 0.00 0.00 50 1012.9
20260508170234 18 230 17.7 27.4 0.00 0.00 0.00 49 1013.0
20260508165732 18 243 6.4 9.7 0.00 0.00 0.00 50 1013.0
20260508165233 18 228 11.3 14.5 0.00 0.00 0.00 49 1013.3
20260508164733 18 215 9.7 12.9 0.00 0.00 0.00 50 1013.4
20260508164233 18 230 9.7 14.5 0.00 0.00 0.00 51 1013.5
20260508163732 18 224 14.5 19.3 0.00 0.00 0.00 50 1013.6
20260508163233 18 206 11.3 17.7 0.00 0.00 0.00 50 1013.6
20260508162732 18 193 9.7 12.9 0.00 0.00 0.00 51 1013.7
20260508162234 18 230 9.7 14.5 0.00 0.00 0.00 52 1013.8
20260508161732 18 215 8.0 12.9 0.00 0.00 0.00 52 1013.7
20260508161233 18 203 9.7 20.9 0.00 0.00 0.00 52 1013.8
20260508160733 17 204 11.3 19.3 0.00 0.00 0.00 52 1013.8
20260508160233 17 226 12.9 20.9 0.00 0.00 0.00 53 1013.8
20260508155732 17 228 12.9 17.7 0.00 0.00 0.00 53 1013.9
20260508155232 17 194 11.3 19.3 0.00 0.00 0.00 52 1014.0
20260508154732 17 182 14.5 17.7 0.00 0.00 0.00 53 1014.1
20260508154234 17 196 11.3 14.5 0.00 0.00 0.00 54 1014.1
20260508153732 17 208 11.3 17.7 0.00 0.00 0.00 54 1014.2
20260508153234 17 225 9.7 12.9 0.00 0.00 0.00 54 1014.2
20260508152732 16 231 12.9 20.9 0.00 0.00 0.00 54 1014.3
20260508152233 16 228 9.7 14.5 0.00 0.00 0.00 55 1014.3
20260508151737 16 217 11.3 19.3 0.00 0.00 0.00 54 1014.4
20260508151233 16 243 12.9 17.7 0.00 0.00 0.00 54 1014.4
20260508150734 16 183 9.7 14.5 0.00 0.00 0.00 56 1014.4
20260508150233 16 229 9.7 12.9 0.00 0.00 0.00 55 1014.5
20260508145735 16 229 11.3 14.5 0.00 0.00 0.00 55 1014.4
20260508145236 15 224 11.3 17.7 0.00 0.00 0.00 55 1014.5
20260508144734 15 229 9.7 14.5 0.00 0.00 0.00 55 1014.5
20260508144234 15 249 9.7 12.9 0.00 0.00 0.00 55 1014.4
20260508143733 15 231 14.5 19.3 0.00 0.00 0.00 55 1014.5
20260508143233 15 234 11.3 17.7 0.00 0.00 0.00 55 1014.6
20260508142733 15 232 12.9 19.3 0.00 0.00 0.00 55 1014.6
20260508142234 15 233 9.7 12.9 0.00 0.00 0.00 56 1014.7
20260508141733 15 222 12.9 16.1 0.00 0.00 0.00 55 1014.7
20260508141233 15 251 11.3 19.3 0.00 0.00 0.00 56 1014.8
20260508140733 14 226 17.7 24.1 0.00 0.00 0.00 55 1014.9
20260508140233 14 222 19.3 24.1 0.00 0.00 0.00 55 1014.9
20260508135733 14 236 17.7 22.5 0.00 0.00 0.00 56 1014.8
20260508135234 14 211 9.7 17.7 0.00 0.00 0.00 56 1014.8
20260508134734 13 211 8.0 12.9 0.00 0.00 0.00 56 1014.8
20260508134235 13 225 14.5 20.9 0.00 0.00 0.00 55 1014.8
20260508133734 13 227 14.5 20.9 0.00 0.00 0.00 56 1014.8
20260508133234 13 223 11.3 19.3 0.00 0.00 0.00 57 1014.8
20260508132732 13 216 9.7 12.9 0.00 0.00 0.00 59 1014.8
20260508132233 13 211 9.7 12.9 0.00 0.00 0.00 59 1014.8
20260508131733 13 216 8.0 14.5 0.00 0.00 0.00 60 1014.8
20260508131234 12 211 11.3 17.7 0.00 0.00 0.00 59 1014.8
20260508130733 12 218 11.3 14.5 0.00 0.00 0.00 59 1014.8
20260508130234 12 221 11.3 16.1 0.00 0.00 0.00 59 1014.8
20260508125734 12 221 12.9 16.1 0.00 0.00 0.00 60 1014.7
20260508125233 12 226 12.9 17.7 0.00 0.00 0.00 60 1014.7
20260508124734 12 195 4.8 6.4 0.00 0.00 0.00 62 1014.7
20260508124233 12 172 8.0 11.3 0.00 0.00 0.00 62 1014.7
20260508123733 12 225 8.0 11.3 0.00 0.00 0.00 62 1014.6
20260508123233 11 177 8.0 12.9 0.00 0.00 0.00 63 1014.6
20260508122733 11 215 8.0 11.3 0.00 0.00 0.00 64 1014.5
20260508122234 11 221 11.3 17.7 0.00 0.00 0.00 64 1014.6
20260508121733 11 216 6.4 11.3 0.00 0.00 0.00 65 1014.6
20260508121233 11 203 8.0 11.3 0.00 0.00 0.00 66 1014.6
20260508120734 10 203 6.4 11.3 0.00 0.00 0.00 67 1014.6
20260508120232 10 192 4.8 6.4 0.00 0.00 0.00 69 1014.6
20260508115732 10 160 3.2 6.4 0.00 0.00 0.00 70 1014.5
20260508115231 10 193 0.0 1.6 0.00 0.00 0.00 71 1014.5
20260508114732 10 158 3.2 6.4 0.00 0.00 0.00 71 1014.4
20260508114231 10 186 4.8 9.7 0.00 0.00 0.00 71 1014.4
20260508113731 9 176 1.6 3.2 0.00 0.00 0.00 72 1014.4
20260508113231 9 163 3.2 6.4 0.00 0.00 0.00 72 1014.3
20260508112731 9 161 3.2 4.8 0.00 0.00 0.00 72 1014.3
20260508112232 9 175 3.2 6.4 0.00 0.00 0.00 72 1014.3
20260508111732 9 154 3.2 4.8 0.00 0.00 0.00 73 1014.2
20260508111231 8 160 3.2 4.8 0.00 0.00 0.00 73 1014.2
20260508110731 8 166 1.6 3.2 0.00 0.00 0.00 74 1014.1
20260508110231 8 145 1.6 3.2 0.00 0.00 0.00 75 1014.0
20260508105733 8 166 3.2 3.2 0.00 0.00 0.00 75 1014.1
20260508105231 8 151 3.2 4.8 0.00 0.00 0.00 75 1014.0
20260508104732 8 150 3.2 3.2 0.00 0.00 0.00 76 1014.1
20260508104231 8 143 3.2 4.8 0.00 0.00 0.00 78 1014.0
20260508103731 8 141 1.6 3.2 0.00 0.00 0.00 78 1014.1
20260508103233 7 139 1.6 3.2 0.00 0.00 0.00 78 1014.1
20260508102732 7 158 0.0 1.6 0.00 0.00 0.00 79 1014.1
20260508102233 7 168 1.6 3.2 0.00 0.00 0.00 79 1014.1
20260508101731 7 150 0.0 1.6 0.00 0.00 0.00 79 1014.1
20260508101233 7 0 0.0 0.0 0.00 0.00 0.00 79 1014.2
20260508100733 7 0 0.0 0.0 0.00 0.00 0.00 80 1014.1
20260508100233 7 62 0.0 3.2 0.00 0.00 0.00 79 1014.1
20260508095731 7 85 0.0 1.6 0.00 0.00 0.00 79 1014.1
20260508095233 7 155 0.0 1.6 0.00 0.00 0.00 79 1014.1
20260508094731 7 143 3.2 4.8 0.00 0.00 0.00 80 1014.0
20260508094231 7 142 1.6 3.2 0.00 0.00 0.00 81 1014.1
20260508093732 7 115 1.6 3.2 0.00 0.00 0.00 83 1014.1
20260508093231 7 174 1.6 3.2 0.00 0.00 0.00 84 1014.2
20260508092732 6 172 0.0 3.2 0.00 0.00 0.00 85 1014.2
20260508092231 6 155 0.0 1.6 0.00 0.00 0.00 85 1014.2
20260508091733 6 184 0.0 3.2 0.00 0.00 0.00 85 1014.1
20260508091232 6 190 0.0 1.6 0.00 0.00 0.00 84 1014.1
20260508090731 6 171 1.6 3.2 0.00 0.00 0.00 84 1014.1
20260508090231 6 177 3.2 4.8 0.00 0.00 0.00 84 1014.1
20260508085731 7 188 1.6 4.8 0.00 0.00 0.00 83 1014.2
20260508085232 7 166 1.6 3.2 0.00 0.00 0.00 82 1014.3
20260508084736 7 190 0.0 0.0 0.00 0.00 0.00 82 1014.2
20260508084231 6 51 0.0 1.6 0.00 0.00 0.00 81 1014.3
20260508083731 6 358 1.6 3.2 0.00 0.00 0.00 81 1014.3
20260508083231 6 354 1.6 3.2 0.00 0.00 0.00 81 1014.2
20260508082732 6 24 1.6 3.2 0.00 0.00 0.00 81 1014.1
20260508082231 6 41 1.6 1.6 0.00 0.00 0.00 80 1014.0
20260508081731 6 38 0.0 1.6 0.00 0.00 0.00 79 1014.0
20260508081231 6 48 0.0 3.2 0.00 0.00 0.00 78 1014.0
20260508080732 6 69 0.0 4.8 0.00 0.00 0.00 79 1014.0
20260508080231 6 54 3.2 6.4 0.00 0.00 0.00 80 1013.9
20260508075732 6 45 0.0 3.2 0.00 0.00 0.00 80 1013.9
20260508075232 6 55 0.0 1.6 0.00 0.00 0.00 80 1013.9
20260508074733 6 79 0.0 1.6 0.00 0.00 0.00 79 1013.9
20260508074231 6 104 0.0 1.6 0.00 0.00 0.00 78 1014.0
20260508073731 6 66 0.0 3.2 0.00 0.00 0.00 77 1014.0
20260508073234 6 113 0.0 3.2 0.00 0.00 0.00 77 1013.9
20260508072731 7 168 1.6 4.8 0.00 0.00 0.00 76 1013.9
20260508072231 7 73 1.6 4.8 0.00 0.00 0.00 76 1013.9
20260508071731 7 72 0.0 1.6 0.00 0.00 0.00 74 1014.0
20260508071232 7 73 0.0 4.8 0.00 0.00 0.00 73 1014.0
20260508070731 7 62 0.0 1.6 0.00 0.00 0.00 72 1014.0
20260508070232 7 148 1.6 4.8 0.00 0.00 0.00 71 1014.1
20260508065731 7 163 1.6 4.8 0.00 0.00 0.00 71 1014.1
20260508065232 7 132 1.6 3.2 0.00 0.00 0.00 72 1014.1
20260508064731 7 187 1.6 4.8 0.00 0.00 0.00 71 1014.1
20260508064231 7 133 1.6 4.8 0.00 0.00 0.00 72 1014.3
20260508063732 7 137 3.2 6.4 0.00 0.00 0.00 73 1014.4
20260508063231 7 140 1.6 3.2 0.00 0.00 0.00 73 1014.5
20260508062735 7 189 0.0 3.2 0.00 0.00 0.00 73 1014.6
20260508062233 7 208 0.0 1.6 0.00 0.00 0.00 72 1014.6
20260508061732 7 132 1.6 3.2 0.00 0.00 0.00 73 1014.6
20260508061231 7 202 0.0 3.2 0.00 0.00 0.00 72 1014.6
20260508060732 7 134 0.0 1.6 0.00 0.00 0.00 73 1014.7
20260508055754 8 156 0.0 1.6 0.00 0.00 0.00 72 1014.6
20260508055231 8 136 3.2 4.8 0.00 0.00 0.00 73 1014.6
20260508054731 7 120 3.2 3.2 0.00 0.00 0.00 73 1014.6
20260508054232 8 184 0.0 3.2 0.00 0.00 0.00 73 1014.7
20260508053732 8 174 0.0 0.0 0.00 0.00 0.00 73 1014.7
20260508053231 8 214 3.2 4.8 0.00 0.00 0.00 72 1014.7
20260508052732 8 178 0.0 3.2 0.00 0.00 0.00 72 1014.7
20260508052231 8 147 3.2 6.4 0.00 0.00 0.00 71 1014.7
20260508051731 8 149 3.2 4.8 0.00 0.00 0.00 71 1014.7
20260508051231 8 147 3.2 3.2 0.00 0.00 0.00 71 1014.7
20260508050732 8 147 1.6 3.2 0.00 0.00 0.00 70 1014.6
20260508050231 8 148 3.2 3.2 0.00 0.00 0.00 70 1014.6
20260508045732 8 144 3.2 3.2 0.00 0.00 0.00 71 1014.6
20260508045231 8 151 1.6 3.2 0.00 0.00 0.00 71 1014.7
20260508044731 8 162 1.6 3.2 0.00 0.00 0.00 70 1014.7
20260508044232 8 179 3.2 6.4 0.00 0.00 0.00 71 1014.6
20260508043732 8 163 3.2 3.2 0.00 0.00 0.00 71 1014.5
20260508043231 8 161 1.6 3.2 0.00 0.00 0.00 71 1014.5
20260508042731 8 178 1.6 3.2 0.00 0.00 0.00 71 1014.5
20260508042231 8 148 1.6 3.2 0.00 0.00 0.00 71 1014.5
20260508041733 8 172 1.6 3.2 0.00 0.00 0.00 71 1014.5
20260508041231 8 185 0.0 1.6 0.00 0.00 0.00 70 1014.6
20260508040733 8 197 1.6 3.2 0.00 0.00 0.00 70 1014.6
20260508040231 8 186 1.6 3.2 0.00 0.00 0.00 68 1014.5
20260508035731 8 186 1.6 3.2 0.00 0.00 0.00 68 1014.4
20260508035231 9 150 1.6 3.2 0.00 0.00 0.00 68 1014.4
20260508034731 8 165 1.6 3.2 0.00 0.00 0.00 68 1014.4
20260508034232 8 146 3.2 3.2 0.00 0.00 0.00 68 1014.5
20260508033731 8 148 1.6 3.2 0.00 0.00 0.00 68 1014.5
20260508033232 9 155 0.0 3.2 0.00 0.00 0.00 67 1014.5
20260508032731 9 156 3.2 3.2 0.00 0.00 0.00 67 1014.5
20260508032234 9 160 1.6 3.2 0.00 0.00 0.00 67 1014.5
20260508031732 9 150 3.2 4.8 0.00 0.00 0.00 68 1014.4
20260508031231 9 197 1.6 3.2 0.00 0.00 0.00 67 1014.5
20260508030732 8 193 1.6 3.2 0.00 0.00 0.00 67 1014.5
20260508030231 8 196 0.0 3.2 0.00 0.00 0.00 67 1014.4
20260508025731 8 170 1.6 3.2 0.00 0.00 0.00 70 1014.3
20260508025232 8 136 3.2 6.4 0.00 0.00 0.00 74 1014.2